TimeCDT,TemperatureF,Dew PointF,Humidity,Sea Level PressureIn,VisibilityMPH,Wind Direction,Wind SpeedMPH,Gust SpeedMPH,PrecipitationIn,Events,Conditions,WindDirDegrees,DateUTC
12:55 AM,33.8,19.4,56,30.14,10.0,SE,3.5,-,N/A,,Scattered Clouds,140,2012-10-13 05:55:00
1:15 AM,35.6,19.4,52,30.13,10.0,SE,4.6,-,N/A,,Mostly Cloudy,140,2012-10-13 06:15:00
1:35 AM,35.6,21.2,56,30.12,10.0,SSE,3.5,-,N/A,,Overcast,150,2012-10-13 06:35:00
1:55 AM,37.4,24.8,60,30.10,10.0,SSE,6.9,-,N/A,,Overcast,150,2012-10-13 06:55:00
2:15 AM,35.6,28.4,75,30.10,10.0,SSE,5.8,-,N/A,Rain,Light Rain,150,2012-10-13 07:15:00
2:35 AM,35.6,30.2,81,30.09,10.0,SSE,4.6,-,N/A,Rain,Rain,150,2012-10-13 07:35:00
2:55 AM,33.8,32.0,93,30.08,10.0,SSE,4.6,-,N/A,,Overcast,160,2012-10-13 07:55:00
3:15 AM,35.6,32.0,87,30.07,10.0,Calm,Calm,-,N/A,,Overcast,0,2012-10-13 08:15:00
3:35 AM,35.6,32.0,87,30.07,10.0,SSE,3.5,-,N/A,,Overcast,160,2012-10-13 08:35:00
3:55 AM,35.6,32.0,87,30.07,5.0,South,3.5,-,N/A,Rain,Rain,170,2012-10-13 08:55:00
4:15 AM,35.6,33.8,93,30.06,4.0,SSE,4.6,-,N/A,,Drizzle,150,2012-10-13 09:15:00
4:35 AM,35.6,33.8,93,30.04,4.0,SE,4.6,-,N/A,Rain,Heavy Rain,140,2012-10-13 09:35:00
4:55 AM,35.6,33.8,93,30.02,3.0,SSE,5.8,-,N/A,,Drizzle,150,2012-10-13 09:55:00
5:15 AM,35.6,33.8,93,30.01,2.5,SSE,5.8,-,N/A,Rain,Rain,160,2012-10-13 10:15:00
5:35 AM,35.6,33.8,93,29.99,4.0,SSE,6.9,-,N/A,,Light Drizzle,150,2012-10-13 10:35:00
5:55 AM,35.6,33.8,93,29.98,2.5,SSE,5.8,-,N/A,,Drizzle,150,2012-10-13 10:55:00
6:15 AM,35.6,33.8,93,29.97,2.5,SSE,6.9,-,N/A,Rain,Light Rain,150,2012-10-13 11:15:00
6:35 AM,35.6,35.6,100,29.96,2.0,SSE,5.8,-,N/A,Rain,Rain,150,2012-10-13 11:35:00
6:55 AM,35.6,35.6,100,29.95,2.5,SSE,4.6,-,N/A,,Light Drizzle,150,2012-10-13 11:55:00
7:15 AM,35.6,35.6,100,29.94,2.0,SE,6.9,-,N/A,,Overcast,140,2012-10-13 12:15:00
7:35 AM,35.6,35.6,100,29.92,2.5,SSE,4.6,-,N/A,,Overcast,150,2012-10-13 12:35:00
7:55 AM,37.4,35.6,93,29.92,1.8,SSE,5.8,-,N/A,,Overcast,150,2012-10-13 12:55:00
8:15 AM,37.4,35.6,93,29.91,1.8,SSE,5.8,-,N/A,,Overcast,150,2012-10-13 13:15:00
8:55 AM,37.4,37.4,100,29.89,1.2,SSE,4.6,-,N/A,,Overcast,150,2012-10-13 13:55:00
9:35 AM,37.4,37.4,100,29.87,1.2,SE,3.5,-,N/A,,Overcast,140,2012-10-13 14:35:00
9:55 AM,39.2,37.4,93,29.86,1.5,SSE,5.8,-,N/A,,Overcast,150,2012-10-13 14:55:00
10:35 AM,39.2,37.4,93,29.87,1.5,SSE,3.5,-,N/A,,Overcast,160,2012-10-13 15:35:00
10:55 AM,41.0,37.4,87,29.87,1.2,South,6.9,-,N/A,,Overcast,170,2012-10-13 15:55:00
11:15 AM,41.0,39.2,93,29.85,1.5,SSE,3.5,-,N/A,,Overcast,160,2012-10-13 16:15:00
11:35 AM,41.0,39.2,93,29.84,1.8,SSE,3.5,-,N/A,,Overcast,160,2012-10-13 16:35:00
11:55 AM,41.0,41.0,100,29.82,2.0,South,3.5,-,N/A,,Overcast,170,2012-10-13 16:55:00
12:15 PM,41.0,41.0,100,29.82,2.5,South,3.5,-,N/A,,Overcast,170,2012-10-13 17:15:00
12:35 PM,42.8,41.0,93,29.79,3.0,SE,3.5,-,N/A,,Overcast,140,2012-10-13 17:35:00
12:55 PM,42.8,41.0,93,29.79,4.0,Calm,Calm,-,N/A,,Overcast,0,2012-10-13 17:55:00
1:15 PM,42.8,41.0,93,29.78,5.0,Calm,Calm,-,N/A,,Overcast,0,2012-10-13 18:15:00
1:35 PM,42.8,41.0,93,29.78,7.0,SSW,3.5,-,N/A,,Overcast,200,2012-10-13 18:35:00
1:55 PM,42.8,41.0,93,29.78,7.0,Calm,Calm,-,N/A,Rain,Rain,0,2012-10-13 18:55:00
2:15 PM,42.8,41.0,93,29.77,7.0,Calm,Calm,-,N/A,,Drizzle,0,2012-10-13 19:15:00
2:35 PM,42.8,41.0,93,29.75,7.0,Calm,Calm,-,N/A,Rain,Light Rain,0,2012-10-13 19:35:00
2:55 PM,42.8,42.8,100,29.74,3.0,Calm,Calm,-,N/A,Rain,Light Rain,0,2012-10-13 19:55:00
3:15 PM,42.8,42.8,100,29.73,3.0,Calm,Calm,-,N/A,Rain,Rain,0,2012-10-13 20:15:00
3:35 PM,42.8,42.8,100,29.73,5.0,Calm,Calm,-,N/A,,Overcast,0,2012-10-13 20:35:00
3:55 PM,44.6,42.8,93,29.73,4.0,Calm,Calm,-,N/A,,Overcast,0,2012-10-13 20:55:00
4:15 PM,44.6,42.8,93,29.73,1.0,Calm,Calm,-,N/A,,Drizzle,0,2012-10-13 21:15:00
4:35 PM,44.6,42.8,93,29.73,1.8,Calm,Calm,-,N/A,,Overcast,0,2012-10-13 21:35:00
4:55 PM,44.6,42.8,93,29.73,2.0,Calm,Calm,-,N/A,,Overcast,0,2012-10-13 21:55:00
5:15 PM,44.6,42.8,93,29.73,1.5,Calm,Calm,-,N/A,Rain,Light Rain,0,2012-10-13 22:15:00
5:35 PM,44.6,42.8,93,29.73,1.5,Calm,Calm,-,N/A,Rain,Light Rain,0,2012-10-13 22:35:00
5:55 PM,44.6,42.8,93,29.73,3.0,Calm,Calm,-,N/A,Rain,Rain,0,2012-10-13 22:55:00
6:15 PM,44.6,42.8,93,29.73,2.5,Calm,Calm,-,N/A,Rain,Light Rain,0,2012-10-13 23:15:00
6:35 PM,44.6,42.8,93,29.73,4.0,Calm,Calm,-,N/A,,Drizzle,0,2012-10-13 23:35:00
7:15 PM,44.6,42.8,93,29.75,5.0,Calm,Calm,-,N/A,Rain,Light Rain,0,2012-10-14 00:15:00
7:35 PM,44.6,42.8,93,29.76,4.0,Calm,Calm,-,N/A,Rain,Light Rain,0,2012-10-14 00:35:00
7:55 PM,44.6,42.8,93,29.76,2.0,Calm,Calm,-,N/A,,Light Drizzle,0,2012-10-14 00:55:00
8:35 PM,44.6,42.8,93,29.77,2.0,Calm,Calm,-,N/A,,Overcast,0,2012-10-14 01:35:00
9:15 PM,44.6,42.8,93,29.76,2.5,Calm,Calm,-,N/A,,Light Drizzle,0,2012-10-14 02:15:00
9:35 PM,44.6,42.8,93,29.76,3.0,Calm,Calm,-,N/A,,Overcast,0,2012-10-14 02:35:00
9:55 PM,44.6,42.8,93,29.77,3.0,Calm,Calm,-,N/A,,Overcast,0,2012-10-14 02:55:00
10:15 PM,44.6,42.8,93,29.76,3.0,Calm,Calm,-,N/A,Rain,Light Rain,0,2012-10-14 03:15:00
11:15 PM,44.6,42.8,93,29.78,4.0,Calm,Calm,-,N/A,,Overcast,0,2012-10-14 04:15:00
11:35 PM,44.6,42.8,93,29.78,4.0,Calm,Calm,-,N/A,Rain,Light Rain,0,2012-10-14 04:35:00
11:55 PM,42.8,42.8,100,29.76,4.0,NNE,3.5,-,N/A,Rain,Light Rain,20,2012-10-14 04:55:00